Starlink 31040

operational
NORAD ID: 58722 Int'l Des: 2024-002 Owner: SPXS Country: US Constellation: starlink
LEOCIRCULAR

关于 Starlink 31040

正在加载描述...

实时位置

正在加载3D地球...

即将过境

高度历史

Altitude vs Time

uPlot chart will show altitude changes over time

两行轨道根数

1 58722U 24002T 25349.95342631 .00006645 00000-0 23637-3 0 9993
2 58722 53.1614 258.9657 0001659 98.0540 262.0649 15.30189056109192
Epoch: Dec 15, 2025 • Age: 15 hours

当前状态

高度 494.9 km
速度 7.62 km/s
星下点 -53.27°S, 134.88°W
发射日期 Jan 3, 2024
运行时间 1.9 years
类型 internet

技术详情

分类 Payload
质量 730.00 kg
干质量 700.00 kg
总质量 730.00 kg
长度 0.30 m
直径 4.10 m
跨度 29.00 m
形状 Box + pan
制造商 SPXS
平台类型 Starlink V2M
阶段状态 In Orbit
所有者/国家 SPXS/US

大型星座

Loading constellations...